Flag Weather past 2 weeks in Yarmouth County, Nova Scotia, Canada

Now
34 °F

Snow flurries. Mostly cloudy.


Feels Like: 22 °F
Forecast: N/A
Wind: 21 mph from Northwest

Location: Yarmouth

Current Time: Nov 27, 2014 at 4:42:42 PM

Latest Report: Nov 27, 2014 at 4:00 PM


Visibility: 8 mi

Pressure: 29.86 "Hg

Humidity: 93%

Dew point: 32 °F

Location of Yarmouth CountyLocation

Historic Weather in Yarmouth County — Graph

°F

Yarmouth County temperature yesterday

Maximum temperature yesterday: 52 °F (at 12:00 AM)
Minimum temperature yesterday: 37 °F (at 7:00 PM)
Average temperature yesterday: 44 °F

Past Weeks' High & Low Weather Summary

 TemperatureHumidityPressure
High61 °F (Nov 24, 11:00 PM)100% (Nov 12, 4:00 PM)30.38 "Hg (Nov 12, 4:00 PM)
Low27 °F (Nov 16, 7:00 AM)45% (Nov 18, 8:00 PM)29.24 "Hg (Nov 27, 7:04 AM)
Average42 °F79%29.93 "Hg
* Reported Nov 12 3:00 PM — Nov 27 3:00 PM, Yarmouth County, Weather by CustomWeather, © 2014

Note: Actual official high and low records may vary slightly from our data, if they occured in-between our weather recording intervals... More about our weather records

Advertising

Yarmouth County weather history for previous 24 hours

 ConditionsComfort  
Time TempWeatherWind HumidityBarometerVisibility
3:00 PM
Nov 27
36 °FSnow flurries. More clouds than sun.20 mph93%29.81 "Hg8 mi
2:00 PM36 °FSnow flurries. Overcast.17 mph93%29.73 "Hg8 mi
1:00 PM36 °FSnow flurries. More clouds than sun.18 mph87%29.67 "Hg8 mi
12:00 PM36 °FPartly sunny.25 mph93%29.65 "Hg12 mi
11:00 AM36 °FSprinkles. Mostly cloudy.25 mph93%29.62 "Hg8 mi
10:00 AM37 °FPartly sunny.26 mph93%29.54 "Hg8 mi
9:00 AM39 °FLow clouds.23 mph100%29.41 "Hg10 mi
8:00 AM39 °FDrizzle. Fog.24 mph100%29.29 "Hg2 mi
7:04 AM52 °FDrizzle. Fog.12 mph100%29.24 "Hg1 mi
6:52 AM48 °FDrizzle. Fog.7 mph100%29.25 "Hg1 mi
6:00 AM43 °FDrizzle. Fog.8 mph100%29.28 "Hg1 mi
5:00 AM41 °FDrizzle. Fog.18 mph100%29.33 "Hg2 mi
4:00 AM41 °FDrizzle. Fog.20 mph100%29.35 "Hg3 mi
3:49 AM41 °FDrizzle. Fog.18 mph100%29.37 "Hg3 mi
3:00 AM41 °FLight rain. Fog.17 mph100%29.42 "Hg5 mi
2:00 AM41 °FLight rain. Fog.24 mph93%29.46 "Hg5 mi
1:53 AM41 °FLight rain. Fog.28 mph93%29.47 "Hg5 mi
1:00 AM39 °FRain. Fog.20 mph100%29.52 "Hg4 mi
12:00 AM41 °FRain. Fog.12 mph93%29.65 "Hg5 mi
11:00 PM
Nov 26
39 °FHeavy rain. Fog.26 mph100%29.62 "Hg3 mi
10:00 PM37 °FRain. Fog.17 mph100%29.78 "Hg4 mi
9:00 PM37 °FRain. Fog.14 mph100%29.87 "Hg4 mi
8:00 PM37 °FRain. Fog.16 mph100%29.95 "Hg2 mi
7:00 PM37 °FLight rain. Fog.14 mph100%30.00 "Hg2 mi
6:00 PM39 °FLight rain. Fog.14 mph100%30.04 "Hg2 mi
5:00 PM41 °FLight rain. Fog.7 mph93%30.14 "Hg3 mi
4:00 PM41 °FLight rain. Fog.6 mph100%30.12 "Hg3 mi
Weather by CustomWeather, © 2014

See weather overviewHow to use our weather pages